Location: Beaver Brook Station
(42.3793°N, 71.2203°W)
Time: 01:25:58
(UTC+00:00)

USA 306 - Pass Details

Date: 29 October 2020
Orbit: 569 x 577 km, 54.0° (Epoch: 22 November)

Event Time Altitude Azimuth Distance (km) Brightness Sun altitude
Rises 22:44:15 0° 311° (NW) 2,786 7.1 -12.1°
Reaches altitude 10° 22:46:37 10° 318° (NW) 1,884 6.0 -12.6°
Maximum altitude 22:50:41 41° 30° (NNE) 839 3.5 -13.3°
Enters shadow 22:52:56 22° 87° (E) 1,255 4.0 -13.7°
